San Carlos, CA

3:38 PM PDT on May 27, 2017 (GMT -0700)
San Carlos

Weather History for KSQL - November, 2012

Change the Weather History Date:

Friday, November 9, 2012

  Actual Average Record
Temperature  
Mean Temperature 50 °F -  
Max Temperature 55 °F 66 °F 83 °F (1955)
Min Temperature 46 °F 43 °F 34 °F (1975)
Degree Days  
Heating Degree Days 14    
Moisture  
Dew Point 41 °F    
Average Humidity 75    
Maximum Humidity 93    
Minimum Humidity 41    
Precipitation  
Precipitation 0.01 in - - ()
Sea Level Pressure  
Sea Level Pressure 29.95 in    
Wind  
Wind Speed 3 mph (West)    
Max Wind Speed 14 mph    
Max Gust Speed 20 mph    
Visibility 10 miles    
Events Rain    
Averages and records for this station are not official NWS values.
T = Trace of Precipitation, MM = Missing Value Source: NWS Daily Summary

Daily Weather History Graph

Daily Weather History Graph

Search for Another Location

Airport or City:

Trip Planner

Search our weather history database for the weather conditions in past years. The results will help you decide how hot, cold, wet, or windy it might be!

Date:

Astronomy

Nov. 09, 2012 Rise Set
Actual Time 6:42 AM PST 5:02 PM PST
Civil Twilight 6:15 AM PST 5:29 PM PST
Nautical Twilight 5:44 AM PST 6:01 PM PST
Astronomical Twilight 5:13 AM PST 6:32 PM PST
Moon 1:53 AM PST (11/9) 2:13 PM PST (11/9)
Length of Visible Light 11h 14m
Length of Day
10h 19m
Waning Crescent, 22% of the Moon is Illuminated
Nov 9
Waning Crescent
Nov 13
New
Nov 20
First Quarter
Nov 28
Full
Dec 6
Last Quarter

Hourly Weather History & Observations

Time (PST) Temp. Windchill Dew Point Humidity Pressure Visibility Wind Dir Wind Speed Gust Speed Precip Events Conditions
12:15 AM 46.4 °F - 44.6 °F 93% 29.93 in 10.0 mi Calm Calm - N/A   Mostly Cloudy
12:35 AM 48.2 °F - 44.6 °F 87% 29.92 in 10.0 mi SSW 3.5 mph - N/A   Mostly Cloudy
12:55 AM 48.2 °F - 44.6 °F 87% 29.92 in 10.0 mi SSE 3.5 mph - N/A   Mostly Cloudy
1:15 AM 46.4 °F 45.2 °F 44.6 °F 93% 29.91 in 10.0 mi South 3.5 mph - N/A   Mostly Cloudy
1:35 AM 46.4 °F - 44.6 °F 93% 29.91 in 10.0 mi Calm Calm - N/A   Overcast
1:55 AM 46.4 °F - 44.6 °F 93% 29.92 in 6.0 mi Calm Calm - 0.01 in Rain Light Rain
2:15 AM 46.4 °F - 44.6 °F 93% 29.91 in 7.0 mi Calm Calm - N/A Rain Light Rain
2:35 AM 48.2 °F - 44.6 °F 87% 29.91 in 10.0 mi Calm Calm - N/A   Mostly Cloudy
2:55 AM 46.4 °F - 44.6 °F 93% 29.92 in 7.0 mi Calm Calm - N/A Rain Light Rain
3:15 AM 48.2 °F - 44.6 °F 87% 29.91 in 10.0 mi NW 5.8 mph - N/A   Scattered Clouds
3:35 AM 46.4 °F 42.9 °F 42.8 °F 87% 29.91 in 10.0 mi WNW 6.9 mph - N/A   Mostly Cloudy
3:55 AM 46.4 °F 45.2 °F 41.0 °F 81% 29.91 in 10.0 mi WNW 3.5 mph - N/A   Overcast
4:15 AM 46.4 °F - 41.0 °F 81% 29.91 in 10.0 mi Calm Calm - N/A   Mostly Cloudy
4:35 AM 46.4 °F 44.3 °F 41.0 °F 81% 29.92 in 10.0 mi West 4.6 mph - N/A   Overcast
4:55 AM 46.4 °F 43.5 °F 41.0 °F 81% 29.93 in 10.0 mi WNW 5.8 mph - N/A   Overcast
5:15 AM 46.4 °F - 41.0 °F 81% 29.93 in 10.0 mi Calm Calm - N/A   Overcast
5:35 AM 46.4 °F 45.2 °F 41.0 °F 81% 29.93 in 10.0 mi WSW 3.5 mph - N/A   Overcast
5:55 AM 46.4 °F - 41.0 °F 81% 29.93 in 10.0 mi Calm Calm - N/A   Overcast
6:15 AM 46.4 °F - 41.0 °F 81% 29.93 in 10.0 mi Calm Calm - N/A   Scattered Clouds
6:35 AM 46.4 °F 45.2 °F 41.0 °F 81% 29.94 in 10.0 mi WNW 3.5 mph - N/A   Clear
6:47 AM 46.4 °F - 41.0 °F 81% 29.94 in 10.0 mi Calm Calm - N/A   Scattered Clouds
6:55 AM 46.4 °F 45.2 °F 41.0 °F 81% 29.94 in 10.0 mi WNW 3.5 mph - N/A   Clear
7:49 AM 46.4 °F - 42.8 °F 87% 29.95 in 10.0 mi Calm Calm - N/A   Scattered Clouds
8:47 AM 50.0 °F - 41.0 °F 71% 29.96 in 10.0 mi NW 3.5 mph - N/A   Scattered Clouds
9:48 AM 53.6 °F - 41.0 °F 62% 29.96 in 10.0 mi Calm Calm - N/A   Scattered Clouds
10:56 AM 53.6 °F - 37.4 °F 54% 29.97 in 10.0 mi WNW 6.9 mph - N/A   Scattered Clouds
11:47 AM 55.4 °F - 37.4 °F 51% 29.96 in 10.0 mi NW 9.2 mph - N/A   Scattered Clouds
12:49 PM 55.4 °F - 35.6 °F 47% 29.94 in 10.0 mi WNW 12.7 mph 19.6 mph N/A   Scattered Clouds
1:52 PM 55.4 °F - 32.0 °F 41% 29.94 in 10.0 mi WNW 13.8 mph - N/A   Scattered Clouds
2:53 PM 55.4 °F - 35.6 °F 47% 29.94 in 10.0 mi West 13.8 mph - N/A   Mostly Cloudy
3:47 PM 53.6 °F - 35.6 °F 51% 29.95 in 10.0 mi WNW 11.5 mph - N/A   Mostly Cloudy
4:47 PM 53.6 °F - 39.2 °F 58% 29.96 in 10.0 mi West 11.5 mph - N/A   Mostly Cloudy
5:54 PM 50.0 °F - 39.2 °F 66% 29.96 in 10.0 mi WSW 4.6 mph - N/A   Scattered Clouds
6:55 PM 50.0 °F - 41.0 °F 71% 29.98 in 10.0 mi Calm Calm - N/A   Scattered Clouds
7:47 PM 50.0 °F - 41.0 °F 71% 29.99 in 10.0 mi Calm Calm - N/A   Scattered Clouds
9:15 PM 50.0 °F - 41.0 °F 71% 30.00 in 10.0 mi WSW 3.5 mph - N/A   Clear
9:35 PM 50.0 °F - 41.0 °F 71% 30.00 in 10.0 mi WSW 3.5 mph - N/A   Partly Cloudy
9:55 PM 50.0 °F - 41.0 °F 71% 30.00 in 10.0 mi West 6.9 mph - N/A   Partly Cloudy
10:15 PM 50.0 °F - 41.0 °F 71% 30.00 in 10.0 mi WNW 4.6 mph - N/A   Clear
10:35 PM 50.0 °F - 41.0 °F 71% 30.01 in 10.0 mi WNW 9.2 mph - N/A   Clear
10:55 PM 50.0 °F - 39.2 °F 66% 30.00 in 10.0 mi WNW 8.1 mph - N/A   Clear
11:15 PM 48.2 °F - 39.2 °F 71% 30.00 in 10.0 mi WNW 6.9 mph - N/A   Clear
11:35 PM 48.2 °F - 39.2 °F 71% 30.01 in 10.0 mi WNW 6.9 mph - N/A   Clear
11:55 PM 48.2 °F - 39.2 °F 71% 30.01 in 10.0 mi West 4.6 mph - N/A   Clear